TimeHST,TemperatureF,Dew PointF,Humidity,Sea Level PressureIn,VisibilityMPH,Wind Direction,Wind SpeedMPH,Gust SpeedMPH,PrecipitationIn,Events,Conditions,WindDirDegrees,DateUTC
12:53 AM,72.0,63.0,73,30.06,10.0,Calm,Calm,-,N/A,,Clear,0,2013-07-05 10:53:00
1:53 AM,72.0,63.0,73,30.05,10.0,Variable,3.5,-,N/A,,Clear,0,2013-07-05 11:53:00
2:53 AM,72.0,63.0,73,30.04,10.0,Variable,3.5,-,N/A,,Clear,0,2013-07-05 12:53:00
3:53 AM,71.1,62.1,73,30.04,10.0,Variable,3.5,-,N/A,,Clear,0,2013-07-05 13:53:00
4:53 AM,70.0,62.1,76,30.04,10.0,Calm,Calm,-,N/A,,Clear,0,2013-07-05 14:53:00
5:53 AM,66.9,61.0,81,30.04,10.0,Calm,Calm,-,N/A,,Clear,0,2013-07-05 15:53:00
6:53 AM,70.0,61.0,73,30.06,10.0,Calm,Calm,-,N/A,,Clear,0,2013-07-05 16:53:00
7:49 AM,77.0,64.4,65,30.05,10.0,Variable,4.6,-,N/A,,Partly Cloudy,0,2013-07-05 17:49:00
7:53 AM,77.0,64.0,64,30.08,10.0,Calm,Calm,-,N/A,,Partly Cloudy,0,2013-07-05 17:53:00
8:53 AM,80.1,64.0,58,30.07,10.0,SE,5.8,-,N/A,,Clear,140,2013-07-05 18:53:00
9:53 AM,80.1,64.9,60,30.07,10.0,SSE,9.2,-,N/A,,Clear,150,2013-07-05 19:53:00
10:53 AM,82.0,66.9,60,30.06,10.0,SSE,10.4,-,N/A,,Clear,160,2013-07-05 20:53:00
11:53 AM,82.0,66.9,60,30.06,10.0,South,6.9,-,N/A,,Clear,190,2013-07-05 21:53:00
12:53 PM,82.0,64.9,56,30.05,10.0,South,8.1,-,N/A,,Clear,190,2013-07-05 22:53:00
1:53 PM,82.0,66.0,58,30.04,10.0,SW,10.4,-,N/A,,Clear,220,2013-07-05 23:53:00
2:53 PM,82.9,66.9,58,30.02,10.0,SSW,10.4,-,N/A,,Clear,210,2013-07-06 00:53:00
3:53 PM,81.0,66.9,62,30.00,10.0,SW,9.2,-,N/A,,Partly Cloudy,230,2013-07-06 01:53:00
4:53 PM,81.0,66.9,62,29.99,10.0,SW,9.2,-,N/A,,Clear,220,2013-07-06 02:53:00
5:53 PM,80.1,68.0,67,30.00,10.0,WSW,9.2,-,N/A,,Clear,240,2013-07-06 03:53:00
6:53 PM,79.0,68.0,69,30.02,10.0,West,6.9,-,N/A,,Scattered Clouds,260,2013-07-06 04:53:00
7:53 PM,78.1,64.9,64,30.03,10.0,Variable,3.5,-,N/A,,Mostly Cloudy,0,2013-07-06 05:53:00
8:53 PM,75.0,64.0,69,30.05,10.0,Variable,3.5,-,N/A,,Clear,0,2013-07-06 06:53:00
9:26 PM,75.2,64.4,69,30.04,10.0,Calm,Calm,-,N/A,,Partly Cloudy,0,2013-07-06 07:26:00
9:53 PM,73.9,64.0,71,30.07,10.0,Calm,Calm,-,N/A,,Partly Cloudy,0,2013-07-06 07:53:00
10:53 PM,72.0,64.0,76,30.08,10.0,Calm,Calm,-,N/A,,Clear,0,2013-07-06 08:53:00
11:53 PM,73.0,64.9,76,30.08,10.0,Calm,Calm,-,N/A,,Clear,0,2013-07-06 09:53:00